Location: Eymir
(36.7333°N, 29.7833°E)
Time: 17:56:25
(UTC+00:00)

Thor Agena Rocket - Pass Details

Date: 14 January 2026
Orbit: 755 x 801 km, 99.1° (Epoch: 17 February)

Event Time Altitude Azimuth Distance (km) Brightness Sun altitude
Rises 04:34:20 0° 11° (N) 3,240 6.6 -7.9°
Reaches altitude 10° 04:36:38 10° 9° (N) 2,316 5.9 -7.5°
Maximum altitude 04:41:42 73° 286° (WNW) 813 3.5 -6.5°
Drops below altitude 10° 04:46:49 10° 202° (SSW) 2,331 6.0 -5.6°
Sets 04:49:09 0° 201° (SSW) 3,262 6.8 -5.2°
